Wind_Speed
27 27 28 29 30 30 30 30 30 29 29 29 28 28 27 26 26 25 24 23 22 21 19 18 17 16 16 16 16 16 16 17 18 19 19 20 20 20 20 19 19 19 19 19 18 17 16 15 15 15 14 13 12 11 10 9 8 8 8 9 11 12 12 13 13 12 11 11 10 9 8 8 9 9 9 10 11 11 11 10 10 10 9 9 8
26 27 27 28 29 29 29 29 29 29 29 29 28 28 28 27 27 26 25 24 23 21 20 19 18 17 16 15 15 14 14 16 17 19 19 20 20 20 19 19 19 19 19 19 19 18 18 16 15 14 14 13 13 12 11 10 9 9 9 9 10 11 12 12 13 14 14 14 13 12 11 10 9 8 9 9 10 11 11 11 10 10 10 9 9
25 26 27 27 27 28 28 28 28 28 29 29 29 28 28 28 28 27 27 25 24 23 22 21 20 19 17 16 15 14 13 14 16 17 18 19 19 19 19 19 18 19 19 19 19 20 19 18 17 15 14 13 13 13 12 12 11 10 9 9 9 10 12 12 12 13 14 14 14 14 14 13 12 11 10 10 10 10 10 10 11 11 11 10 10
24 25 26 27 27 27 27 27 27 28 28 29 29 29 29 28 28 27 27 27 26 26 25 24 22 21 20 18 17 15 14 14 15 17 17 17 17 17 18 18 17 18 20 19 19 20 20 20 19 18 16 14 13 13 12 12 12 11 9 8 8 9 10 11 11 12 13 14 14 15 15 16 15 14 13 11 11 10 10 10 10 10 11 11 11
24 25 26 27 27 27 27 27 27 28 28 29 29 29 29 29 28 28 28 28 27 27 27 26 25 23 22 21 20 18 16 15 15 16 17 17 17 16 17 17 17 18 20 20 19 20 20 20 20 19 18 17 15 13 12 11 11 11 9 8 9 9 9 10 11 10 11 13 14 15 15 16 16 16 16 14 13 12 11 10 10 10 10 11 12
24 26 26 27 27 27 27 27 27 27 28 28 29 29 29 29 29 28 28 28 28 28 28 28 27 26 25 24 22 21 20 19 17 17 18 18 17 17 17 17 16 17 19 20 20 20 20 20 19 19 19 18 17 15 13 11 11 12 13 12 11 10 9 10 11 11 8 10 12 14 15 16 16 17 18 17 15 14 12 11 11 12 12 13 13
24 25 26 27 28 28 28 28 28 28 28 28 29 29 29 29 29 29 28 29 29 29 30 30 30 29 28 27 25 23 22 21 20 19 18 18 18 17 17 16 16 17 18 19 19 19 19 19 19 19 18 18 17 16 15 13 12 14 15 15 14 13 11 12 14 13 11 9 9 12 14 16 17 18 18 18 17 16 15 13 12 13 14 15 15
24 25 26 27 27 27 27 28 28 28 28 29 29 29 29 30 30 29 29 29 30 30 31 31 32 31 31 29 27 25 24 23 22 21 19 18 18 17 17 16 16 16 16 17 18 19 19 19 19 19 18 17 16 16 16 15 15 15 16 16 16 16 15 14 15 14 12 10 9 9 13 17 18 18 18 18 17 17 17 16 15 14 14 15 14
23 24 25 25 26 26 27 27 28 28 29 30 30 30 30 30 30 30 30 30 30 31 31 32 32 32 32 31 30 27 26 25 24 23 22 20 19 19 18 17 16 17 16 16 17 19 20 19 19 19 18 17 16 16 16 15 16 16 17 17 16 16 17 16 15 16 15 11 10 10 11 15 18 17 18 18 18 18 18 18 17 16 16 15 14
22 23 23 24 25 25 26 26 27 28 29 30 30 30 30 30 30 30 29 30 30 31 32 32 32 32 32 32 31 30 28 27 26 25 24 23 22 21 20 19 19 18 18 18 18 19 20 20 19 19 18 17 16 16 16 15 16 17 18 18 18 18 18 17 17 17 17 15 12 11 10 11 13 14 16 17 17 15 15 15 17 18 18 17 15
20 21 22 23 23 24 24 25 26 27 28 29 29 29 29 29 29 28 28 28 29 30 31 31 32 32 32 31 31 31 30 29 28 27 26 25 24 23 22 22 21 20 20 20 20 21 21 20 20 19 18 17 16 16 15 15 16 17 18 19 20 20 18 18 17 17 16 16 16 15 13 10 10 11 15 16 14 12 12 14 16 17 19 19 16
19 19 20 21 21 22 22 23 24 25 26 27 27 27 26 27 27 27 27 27 28 29 29 30 30 31 30 30 30 30 30 29 28 27 27 26 25 24 24 23 23 22 22 22 22 22 22 22 21 20 19 18 16 15 15 15 15 16 17 19 21 21 19 18 17 16 15 15 16 18 17 14 12 12 15 16 14 15 16 17 18 18 21 22 19
17 17 18 19 19 20 20 20 21 22 24 24 24 24 23 23 24 25 26 27 28 28 28 29 29 30 30 30 29 29 29 29 29 28 27 26 25 25 24 24 24 24 23 23 23 23 23 23 22 21 20 19 18 16 16 16 15 15 16 18 20 21 20 19 19 18 16 16 17 19 19 18 16 13 15 17 19 20 20 22 23 23 25 25 23
15 15 16 16 17 17 17 18 18 19 21 21 22 21 21 21 22 24 25 26 27 27 28 28 29 30 30 31 30 30 29 29 29 29 28 28 26 25 25 25 25 24 24 24 24 24 24 24 24 23 21 20 19 18 17 17 16 16 16 18 19 20 21 21 21 20 19 18 20 21 21 21 21 17 16 19 22 24 24 25 25 25 26 26 25
13 13 14 14 14 15 16 16 16 17 18 19 19 20 20 21 22 23 25 26 26 27 27 29 30 31 32 32 33 32 31 30 29 29 29 29 27 26 25 25 25 25 24 24 24 24 25 25 25 25 24 22 21 20 19 18 17 18 18 18 19 19 20 21 21 22 21 21 22 23 24 24 25 22 19 20 22 24 26 27 26 26 26 27 27
12 12 12 12 12 13 14 14 15 15 16 17 17 18 19 20 21 23 24 25 26 27 28 29 31 32 33 34 34 35 34 32 29 28 29 29 27 26 25 25 25 24 24 24 24 25 26 27 26 26 26 25 24 22 21 20 19 19 20 20 21 21 20 20 20 22 23 23 24 25 27 27 27 27 24 23 24 26 27 28 29 30 30 30 30
10 10 10 10 10 11 11 12 13 14 15 15 16 17 18 20 21 22 24 25 26 28 29 30 32 33 34 35 36 37 37 34 30 29 29 28 27 26 26 26 25 24 23 23 24 25 26 27 27 27 27 26 25 25 23 22 22 21 21 21 22 22 22 21 20 21 22 24 24 25 27 28 30 30 30 29 29 31 32 31 31 32 33 33 34
7 7 8 8 8 8 9 10 11 12 13 14 14 16 17 19 21 22 24 25 26 28 29 31 32 34 35 36 38 39 38 36 32 30 29 29 28 28 28 27 26 25 25 24 25 26 27 27 28 27 27 26 26 25 24 23 23 23 22 22 22 22 22 22 21 20 21 23 25 25 26 27 29 30 32 33 34 35 37 37 36 35 34 35 35
5 5 6 6 6 7 8 9 10 11 12 13 14 15 16 18 20 22 24 25 26 27 29 31 32 34 35 37 39 40 39 36 33 31 31 30 30 30 30 30 30 29 28 28 28 28 29 29 30 29 28 27 25 24 24 24 24 23 23 22 22 21 20 20 19 19 19 21 24 25 26 27 28 29 30 32 34 37 39 41 42 41 40 39 37
4 4 4 5 5 6 8 9 10 11 12 13 14 15 16 17 19 22 23 25 26 27 28 30 32 34 36 38 40 40 38 35 32 31 32 32 32 32 33 34 35 34 34 33 32 31 31 32 32 31 30 28 27 26 24 23 22 21 21 21 21 20 19 17 16 16 16 18 20 22 24 25 27 28 29 31 32 35 37 40 43 44 44 44 43
2 2 3 4 4 6 8 9 10 12 13 14 15 17 17 18 19 21 23 25 26 28 29 30 31 34 36 39 40 40 36 32 30 30 31 32 33 34 34 36 37 38 39 38 36 34 33 33 33 33 33 32 30 29 26 25 25 24 22 20 19 18 18 16 15 13 14 14 16 17 18 20 23 26 28 31 33 34 37 39 42 44 46 47 47
2 3 3 4 5 7 9 10 11 12 13 15 16 17 18 19 19 20 22 24 26 28 30 31 32 34 36 38 40 40 36 30 27 28 28 30 32 33 34 35 37 39 41 41 40 38 35 34 33 33 34 34 33 31 29 29 30 31 28 23 18 15 14 15 13 12 13 14 16 16 17 18 21 24 28 31 33 35 38 40 42 43 45 47 49
3 3 4 4 6 7 9 10 11 12 13 15 16 18 19 20 20 21 22 24 26 28 30 32 33 35 37 38 39 40 37 29 24 25 27 27 29 31 33 34 36 38 40 41 41 40 38 36 34 34 34 34 34 33 31 31 33 34 33 30 26 22 17 15 13 11 13 14 15 16 17 19 23 25 26 28 31 34 37 39 41 43 45 47 49
2 2 3 4 6 7 9 11 12 13 14 15 16 17 19 20 21 21 22 23 25 27 30 32 34 36 38 39 40 40 38 30 23 23 27 28 27 29 32 33 36 38 39 40 41 41 40 38 37 35 35 34 34 34 33 32 32 34 34 32 30 28 24 21 17 14 13 14 14 16 18 23 27 28 27 26 27 30 33 36 38 40 43 46 48
1 2 3 5 6 8 9 11 13 14 15 15 16 17 18 20 21 22 22 23 24 26 30 32 34 37 38 40 40 41 39 31 22 20 26 32 30 26 28 32 35 38 39 40 41 42 41 39 38 38 37 36 37 38 36 33 31 32 33 32 31 29 25 23 22 21 19 18 19 20 21 24 26 28 28 28 28 28 30 32 35 36 38 41 45
3 4 6 7 8 9 10 12 14 15 16 16 16 17 18 19 21 23 23 24 24 26 29 31 33 36 38 39 40 42 40 31 23 19 24 35 35 27 25 29 32 35 38 40 42 43 42 40 39 39 38 38 40 42 41 39 35 33 34 34 33 31 29 28 29 30 29 28 27 27 27 28 29 30 31 32 32 31 30 30 31 34 35 37 40
7 8 9 9 10 11 12 14 15 16 17 17 17 17 18 19 21 23 24 24 24 26 28 30 32 34 36 39 40 42 41 35 29 23 23 34 39 32 27 27 29 32 35 38 41 43 43 41 39 39 38 39 42 44 44 43 41 38 37 37 35 34 34 35 36 37 38 38 38 38 38 37 36 36 37 37 36 35 34 32 31 31 33 35 37
10 11 11 12 13 14 15 16 17 18 18 18 18 18 18 19 21 23 24 25 25 26 28 30 32 33 35 37 38 39 40 39 36 31 28 34 40 38 32 28 28 30 33 35 37 40 43 43 40 38 38 39 42 44 44 43 42 40 38 37 35 35 35 37 39 41 43 45 46 46 46 44 44 43 42 42 40 39 38 36 34 33 33 34 36
13 13 14 15 15 16 17 17 18 19 19 20 19 19 19 20 21 23 24 25 26 27 29 30 32 33 34 36 37 38 38 39 39 37 36 38 41 40 36 30 27 29 33 34 33 35 39 43 42 39 37 38 40 42 43 42 42 41 39 38 37 36 37 38 40 42 45 47 48 50 51 51 50 49 48 47 46 44 42 39 38 37 36 36 37
16 16 17 18 18 18 19 19 20 20 21 22 22 22 21 21 22 23 24 25 26 28 30 31 33 33 34 36 38 38 38 39 39 40 41 41 42 41 38 32 28 29 32 34 33 32 34 39 42 40 38 38 40 42 42 42 42 41 40 39 38 38 39 40 41 43 46 48 50 52 53 54 54 53 53 53 52 50 47 44 41 40 39 39 40
19 20 20 21 21 21 21 21 21 22 23 23 24 24 24 23 23 24 24 26 27 28 30 32 33 34 34 36 38 40 41 41 41 42 42 43 43 43 40 36 31 31 32 33 33 33 32 34 39 41 39 39 41 41 43 43 44 43 42 41 40 40 40 41 42 45 48 51 52 54 56 57 58 57 58 58 58 56 53 50 46 43 42 42 42
22 22 23 23 24 24 23 23 23 23 24 25 26 26 26 25 25 25 25 26 28 29 31 32 34 35 35 37 38 40 42 43 43 44 44 44 45 44 43 40 37 36 35 33 32 32 31 31 36 40 40 41 42 43 44 45 46 46 45 44 43 43 43 44 44 47 50 53 55 57 58 60 61 60 61 62 63 62 60 56 53 49 46 45 45
25 25 25 26 26 26 25 24 25 25 26 26 27 28 27 27 27 27 27 28 29 30 32 33 35 35 36 37 38 41 43 44 45 45 46 46 47 47 45 44 42 40 37 34 31 30 29 30 34 38 40 42 44 45 45 47 48 48 48 47 47 46 47 47 48 49 52 55 58 60 62 63 64 64 64 65 66 66 64 61 58 55 52 50 48
27 28 28 28 28 28 27 26 27 27 27 28 29 30 29 29 29 29 28 29 30 31 33 35 36 36 37 38 39 40 42 44 45 46 46 47 49 49 48 47 46 42 39 35 31 29 28 29 33 37 40 43 45 47 47 48 50 51 50 50 50 49 49 50 51 52 55 58 61 63 65 67 67 68 68 68 70 70 68 66 63 61 59 56 53
30 30 29 29 29 29 28 27 28 29 30 30 31 31 31 32 31 31 30 30 31 33 35 37 37 37 38 39 40 41 43 44 46 46 47 48 49 50 50 50 49 46 41 36 32 28 26 27 32 37 40 43 46 48 49 49 51 52 53 52 52 52 52 53 54 55 57 60 64 66 68 70 71 72 72 72 73 74 73 71 68 65 62 60 59
31 31 31 30 30 29 29 29 29 31 32 32 32 33 33 34 34 33 33 33 33 34 36 39 39 39 40 40 41 43 45 45 47 48 47 48 49 50 50 50 50 48 43 38 33 27 24 25 30 36 39 43 46 48 50 51 51 53 54 54 54 54 55 56 57 58 60 62 66 68 70 72 74 75 75 74 76 77 77 75 71 67 65 63 62
33 32 32 31 31 31 31 31 31 32 33 34 34 35 35 36 36 36 36 36 36 36 38 40 41 41 41 42 43 45 46 47 48 49 48 48 49 50 50 50 50 48 44 39 34 28 23 23 28 34 38 42 46 49 51 52 53 54 55 55 56 56 57 59 60 60 62 64 68 70 73 75 77 78 78 76 77 78 78 76 72 69 67 66 64
34 34 33 32 32 32 32 33 33 34 35 36 37 37 37 38 38 38 39 39 39 39 39 41 43 43 43 44 45 47 48 48 50 50 49 49 49 50 50 50 49 48 45 40 34 29 23 22 25 31 37 41 45 49 52 54 55 55 56 56 57 57 58 60 62 62 64 67 70 73 76 77 79 81 81 79 78 78 77 75 72 69 67 65 65
35 35 35 34 34 34 34 35 36 37 38 39 39 39 39 40 41 41 41 42 42 42 42 43 44 44 45 45 47 49 50 51 52 52 50 50 50 51 50 50 49 48 45 41 36 30 25 22 24 30 35 40 45 49 52 54 56 57 57 57 57 58 60 61 63 64 66 68 71 75 78 80 81 82 83 82 80 79 78 74 70 66 63 61 60
37 37 36 36 36 36 36 37 38 39 40 41 41 41 41 41 43 44 44 44 44 44 44 45 46 46 46 47 48 50 52 52 54 54 51 50 52 52 51 50 49 47 45 41 37 32 27 23 24 29 35 41 46 50 52 55 56 57 58 58 58 58 60 62 64 65 67 69 73 76 80 82 83 85 87 86 84 82 80 76 71 65 59 55 52
38 38 38 38 38 38 39 40 40 41 42 43 43 43 43 43 45 46 47 47 46 46 46 47 48 48 48 49 50 52 53 54 55 55 53 52 53 53 52 51 49 46 44 41 37 34 29 25 24 29 35 41 46 50 53 55 57 58 59 59 58 59 61 63 65 67 69 71 74 78 82 84 85 88 90 89 87 85 82 79 75 68 60 54 48
40 40 40 40 40 41 41 42 43 43 44 44 45 45 45 46 47 48 49 49 48 48 48 49 50 50 50 51 52 53 55 55 55 55 53 53 54 54 53 51 48 45 43 40 37 35 31 27 26 29 36 42 46 50 53 55 57 59 60 59 59 60 62 64 66 69 72 74 76 80 84 86 88 90 92 93 91 88 85 82 79 73 64 55 48
42 42 43 43 43 43 44 44 44 45 45 46 46 47 48 49 49 50 51 52 51 50 51 51 52 52 53 54 55 55 56 56 56 54 53 53 55 55 54 52 47 43 42 39 36 35 33 29 27 29 35 41 46 51 54 56 58 60 61 60 59 60 63 65 67 69 73 76 78 81 85 88 90 93 96 97 95 93 89 86 83 77 68 58 49
45 45 46 46 45 45 46 46 47 47 47 48 49 49 50 51 51 52 53 54 54 54 54 54 55 55 55 56 56 57 58 57 56 54 53 54 56 56 54 51 46 42 40 38 36 35 33 30 28 29 34 41 46 50 54 56 59 60 61 60 60 61 63 66 68 70 73 77 81 83 86 90 92 96 99 100 100 97 93 91 88 82 73 62 52
48 48 48 48 47 47 48 49 49 49 50 51 51 52 53 53 54 55 55 57 57 57 57 57 58 58 58 58 58 59 60 59 57 55 54 56 57 56 53 50 45 41 38 37 37 35 33 31 30 30 34 41 46 50 54 57 59 60 60 60 60 61 63 67 69 71 74 78 82 84 87 91 93 97 100 102 102 100 96 93 91 86 78 68 57
50 50 51 50 50 50 51 51 51 51 52 54 54 55 55 56 57 57 58 59 60 61 61 60 60 60 61 61 61 62 62 60 58 56 55 57 58 56 52 48 43 39 37 36 37 36 34 32 30 30 36 42 46 50 54 57 59 59 59 60 61 61 64 67 70 72 75 78 82 85 88 91 94 98 101 104 104 102 99 96 93 89 83 74 64
53 53 53 53 53 54 54 54 53 54 56 57 58 58 59 59 60 60 60 62 63 64 64 64 63 63 63 64 65 65 64 62 60 59 58 58 58 55 50 45 41 38 36 36 37 36 34 32 30 31 37 42 45 49 53 56 58 59 59 60 61 62 64 67 70 73 75 78 83 86 89 92 96 99 102 104 105 104 101 98 95 93 88 79 69
56 56 56 57 57 57 57 57 57 58 59 60 61 62 62 63 63 63 63 65 65 66 66 66 66 65 65 67 67 67 65 63 61 61 60 58 57 53 47 42 39 37 36 36 37 36 34 32 30 32 38 42 45 49 53 56 58 58 59 60 61 62 65 67 70 74 76 79 83 87 90 93 96 99 103 105 106 106 104 101 97 94 90 83 74
60 59 60 60 61 61 61 61 61 62 63 63 65 66 66 66 66 66 66 67 67 67 68 69 68 68 67 68 68 67 66 63 62 61 59 56 54 49 43 38 37 36 35 36 36 36 34 32 31 33 38 42 46 50 53 56 58 59 59 60 62 64 66 68 72 74 77 81 84 87 90 93 96 100 103 105 107 107 106 103 100 96 92 87 78
62 62 63 63 63 64 64 65 65 65 65 66 67 68 69 69 69 68 68 68 68 68 69 69 69 69 68 68 68 67 65 63 60 57 53 50 48 44 39 36 36 35 35 36 37 36 35 33 33 35 39 42 46 50 54 57 59 60 60 61 62 65 67 69 72 75 78 82 85 88 90 93 96 100 103 105 107 108 108 105 102 99 95 89 81
59 60 61 62 62 62 62 63 63 63 63 64 65 67 68 69 69 68 67 66 66 67 67 68 68 68 67 66 66 65 61 57 53 49 45 44 42 40 36 35 35 35 34 35 38 38 36 35 34 36 40 43 47 51 55 59 60 61 61 61 63 66 68 70 73 75 79 83 86 88 91 94 97 100 103 105 107 108 109 107 104 102 98 93 85
Wind_Direction
69 67 66 64 63 63 62 61 60 59 59 58 57 55 54 53 52 51 49 47 46 45 43 42 42 42 43 43 41 38 35 33 32 31 29 27 26 25 22 20 18 16 17 16 15 14 14 13 11 10 9 5 2 359 355 345 332 323 311 301 294 286 282 280 281 280 274 271 271 272 278 279 277 274 273 274 276 277 280 283 285 289 291 293 295
69 67 65 64 63 62 61 60 60 59 59 58 57 55 54 53 51 50 50 48 47 46 45 44 42 41 42 43 43 40 35 31 30 28 27 26 25 23 21 19 17 14 13 11 9 7 6 5 3 1 1 359 358 358 358 353 343 336 328 317 306 295 287 278 275 275 273 271 269 268 270 274 276 280 281 280 279 277 276 279 281 285 287 290 293
69 68 66 65 63 62 61 61 60 58 57 56 55 54 53 52 50 49 48 48 47 46 45 44 42 41 40 40 41 39 32 26 24 23 23 23 23 22 20 18 17 15 13 9 7 4 0 357 355 353 350 349 348 350 353 350 346 342 336 328 317 305 297 291 282 275 272 271 270 269 269 269 269 274 280 282 283 284 280 279 282 285 288 290 292
71 69 68 66 65 63 62 61 59 57 56 55 54 53 52 51 50 48 47 47 47 45 44 43 42 40 39 38 37 36 30 24 18 17 18 21 21 21 20 16 13 13 11 9 6 3 359 354 349 346 343 341 339 339 341 337 336 336 331 326 323 316 312 310 304 291 279 274 272 270 268 266 266 268 273 276 279 285 286 287 290 294 296 293 289
72 70 68 67 66 64 62 61 59 57 55 54 54 53 51 50 49 48 47 47 47 46 44 42 41 40 38 37 37 35 32 26 20 15 16 19 20 19 19 17 13 11 8 5 5 1 357 352 348 343 338 336 334 333 329 320 319 320 316 314 317 322 325 326 323 312 289 274 269 268 268 268 268 268 269 270 272 277 283 289 296 299 299 296 290
73 71 70 68 66 65 62 61 59 57 56 55 54 53 52 51 49 48 47 46 46 45 43 42 40 39 38 37 36 35 33 30 26 21 18 18 20 18 18 17 16 15 9 3 2 0 355 350 346 342 337 333 331 328 321 313 309 307 308 310 308 307 312 317 322 326 311 283 269 265 267 267 267 267 267 267 268 271 277 283 288 290 292 293 291
74 71 70 68 66 65 63 61 60 58 57 56 56 55 53 52 51 49 48 47 45 44 42 41 40 38 37 36 35 34 33 31 28 25 22 20 19 17 15 14 13 14 9 0 358 358 354 350 346 342 336 332 329 324 317 315 310 303 304 305 303 302 303 305 311 320 322 310 290 272 264 261 259 260 264 267 269 271 274 274 275 279 282 286 291
73 71 69 67 66 64 63 61 59 58 57 56 55 54 53 52 50 49 48 46 45 43 41 39 38 37 36 35 34 32 30 29 27 26 24 21 19 17 14 12 8 6 5 358 353 353 353 351 347 342 337 333 328 321 314 313 309 304 302 301 301 301 301 302 305 311 317 319 317 293 266 256 253 256 262 268 271 271 270 267 264 265 268 274 283
72 69 67 66 65 63 61 60 58 57 55 54 54 52 51 50 49 48 46 46 44 42 40 37 36 35 35 34 33 32 30 28 26 24 22 20 18 16 13 11 6 2 0 355 350 349 350 350 347 343 339 334 329 321 312 308 307 307 306 303 300 296 293 294 297 302 307 309 316 310 280 260 257 260 264 267 268 267 267 266 262 259 257 260 269
72 69 67 65 64 62 59 58 57 56 55 53 52 51 50 49 48 47 45 44 44 42 40 37 35 34 33 33 32 31 29 28 25 23 21 19 16 14 11 9 5 2 358 354 351 349 349 348 347 345 342 337 332 323 314 308 305 305 306 306 304 299 294 292 291 292 296 297 299 301 287 264 262 264 267 272 271 266 267 270 270 266 259 253 257
74 70 68 65 63 61 59 57 56 56 55 53 51 50 48 48 48 46 45 43 42 40 38 36 34 32 31 30 30 29 28 26 24 22 20 17 16 13 11 8 5 2 359 356 353 351 349 348 347 346 343 341 335 327 320 312 306 302 302 304 304 304 304 302 297 288 284 287 288 288 278 258 248 247 255 267 266 254 255 265 266 264 264 259 252
75 71 68 66 64 62 60 58 57 56 55 53 50 49 48 47 47 47 45 42 41 39 36 34 32 30 28 27 26 26 26 25 22 20 18 16 14 12 10 7 5 3 1 358 354 351 349 348 347 346 345 342 337 331 326 319 311 302 299 299 299 302 303 301 295 282 272 275 279 278 271 254 239 230 238 250 247 240 245 252 253 255 263 263 257
77 73 70 67 65 63 61 59 58 57 55 53 50 48 46 45 45 45 44 42 40 38 36 34 31 30 28 26 24 23 23 22 20 19 16 14 13 11 9 6 4 2 0 357 354 352 350 350 348 348 347 344 338 335 331 324 316 306 297 293 292 293 293 291 289 283 273 265 263 266 264 254 245 232 228 237 238 238 242 245 248 250 254 261 264
80 76 72 68 66 63 60 58 58 57 55 53 51 49 47 45 44 44 43 41 39 38 35 32 30 28 27 26 24 21 19 18 18 17 15 12 10 9 8 6 3 1 359 356 354 352 350 350 349 348 349 346 340 337 332 326 321 313 304 297 292 290 288 286 285 284 277 264 255 256 256 251 249 243 231 230 230 230 234 240 243 242 246 258 265
85 80 75 70 66 62 60 58 57 57 55 53 51 50 48 45 43 42 41 40 38 35 33 30 27 26 25 24 22 21 18 16 15 14 13 11 8 7 7 5 2 359 357 355 353 352 351 350 349 348 347 346 342 338 334 330 325 319 315 309 303 298 293 288 283 279 275 268 259 254 253 250 249 250 243 234 230 227 229 235 238 236 241 251 252
88 83 78 73 68 63 60 58 57 56 54 51 50 48 46 44 42 40 38 37 34 32 30 28 25 23 22 21 20 19 18 16 15 13 11 10 9 7 5 4 2 360 357 355 353 352 351 350 349 348 346 344 342 339 336 332 328 324 320 315 311 306 300 294 286 279 273 269 264 257 255 253 252 253 251 243 236 233 233 234 236 236 239 244 244
90 86 82 75 69 63 59 56 53 51 49 47 46 44 42 40 39 38 36 33 31 29 27 25 23 21 20 19 19 18 18 17 17 15 13 13 13 11 9 8 8 5 2 359 357 355 353 351 349 348 346 344 341 339 337 334 330 326 322 318 313 309 305 300 294 287 279 273 270 266 262 260 257 256 256 252 246 242 241 242 242 241 240 241 241
95 90 84 76 68 60 53 50 46 42 40 39 38 37 36 36 35 34 33 30 28 26 24 23 21 20 19 19 18 19 19 19 19 20 20 21 20 20 20 20 19 17 14 11 8 5 1 357 353 349 346 343 340 338 335 332 329 326 322 318 314 310 306 303 299 295 288 281 276 273 271 269 266 262 259 257 255 252 252 255 258 256 252 248 246
98 91 84 75 65 53 43 38 35 31 28 27 25 26 28 29 30 29 29 27 25 23 21 20 19 18 18 19 19 20 20 21 22 25 27 28 28 28 29 30 29 28 26 23 20 17 15 11 5 359 352 347 344 341 338 337 334 331 327 321 317 314 311 307 304 302 300 294 288 282 279 278 277 275 271 267 263 260 260 262 265 265 263 260 257
92 82 72 64 56 43 32 24 21 18 16 14 14 13 16 21 24 24 25 24 22 20 18 17 16 16 17 19 20 20 20 22 26 29 30 31 31 32 33 34 34 34 33 31 29 27 25 24 21 15 8 1 357 354 354 355 353 350 343 332 324 320 320 319 314 312 313 311 305 298 293 290 288 286 284 280 275 270 266 264 264 264 264 263 262
69 56 40 40 36 27 19 13 10 8 6 5 4 5 6 10 16 18 20 21 20 18 16 13 12 12 15 17 19 19 20 23 26 28 30 31 32 32 33 34 34 35 35 35 35 33 32 31 30 28 23 17 13 11 11 12 11 8 359 347 336 328 327 330 332 338 341 335 328 321 317 314 309 303 297 291 286 281 276 271 267 264 262 262 262
37 23 16 16 17 13 8 7 6 3 1 359 359 360 0 3 7 11 14 16 17 16 13 12 11 11 11 13 15 15 16 19 25 27 28 30 31 32 32 33 33 33 33 34 35 35 34 33 32 33 31 28 25 22 22 21 20 19 16 14 10 360 346 341 349 7 9 1 356 348 340 336 329 321 312 304 298 292 287 282 277 272 267 264 262
29 22 18 19 17 11 5 1 359 358 356 355 354 356 357 358 359 1 6 10 11 12 11 10 11 11 12 12 11 10 10 13 19 23 24 25 27 29 30 31 32 31 31 31 31 32 33 33 33 33 33 33 31 28 27 27 27 28 30 32 35 36 29 21 23 25 13 4 358 349 338 331 326 321 314 307 301 296 293 289 285 282 277 273 268
27 16 7 2 359 359 358 354 352 351 350 351 351 351 352 353 353 354 357 2 5 7 7 7 8 10 12 12 11 8 6 7 13 21 23 21 20 22 25 29 31 30 28 28 27 28 29 30 31 31 31 32 32 32 33 33 32 31 33 35 36 37 36 35 33 19 359 347 337 329 322 319 319 320 315 309 301 292 288 286 284 283 280 278 275
309 323 322 324 330 334 339 341 340 341 342 344 346 347 348 349 349 348 350 354 358 1 3 4 5 6 8 10 11 9 6 5 10 17 19 17 14 14 19 24 27 27 26 25 24 23 23 24 26 26 27 28 27 27 30 33 34 33 32 33 33 31 30 28 23 14 4 355 344 334 327 323 323 325 324 321 315 303 292 283 278 276 275 274 274
270 286 296 304 312 317 322 325 326 329 332 335 339 342 344 345 346 345 345 347 349 352 356 359 1 2 4 6 8 8 7 6 6 5 8 11 11 9 10 13 16 18 20 21 21 19 17 18 20 22 22 23 23 23 24 24 25 25 23 23 24 23 21 18 14 11 8 4 359 354 348 343 339 336 333 330 326 320 311 298 283 273 269 268 268
272 280 289 297 304 308 313 315 316 318 321 325 331 335 337 339 342 343 343 343 343 345 348 352 355 357 0 3 4 6 7 6 4 1 1 4 6 5 2 1 3 6 9 13 15 15 13 12 14 17 17 17 18 20 21 20 19 18 15 13 12 9 6 5 3 1 360 358 356 355 353 350 346 342 338 334 330 325 320 311 299 284 273 267 265
275 283 291 295 300 304 307 309 310 312 314 318 323 328 331 334 337 339 341 342 341 341 343 345 349 351 354 359 1 2 4 4 2 0 356 353 356 358 356 352 352 356 359 2 6 9 9 7 7 12 13 12 13 17 17 16 15 14 12 11 8 3 359 356 355 353 353 351 350 349 349 348 346 343 341 338 334 329 324 317 309 297 285 275 267
279 286 292 295 297 300 303 304 306 308 310 314 317 321 325 329 332 335 337 340 340 340 340 341 343 345 348 352 356 357 359 0 359 356 352 348 349 352 353 349 344 348 351 353 357 1 3 3 2 6 10 10 10 13 14 13 11 9 8 7 4 1 358 355 352 350 349 347 346 345 345 345 344 343 342 339 336 332 327 321 314 306 296 286 275
277 283 288 293 296 297 298 300 303 306 308 311 313 317 320 324 328 330 332 335 337 337 337 338 339 342 344 346 349 351 353 355 355 354 351 349 348 349 351 349 343 343 345 347 349 353 356 358 358 1 7 10 9 10 12 11 9 6 4 2 0 357 354 352 350 348 347 345 344 343 343 342 342 342 341 340 337 333 329 323 317 309 302 295 286
274 278 284 289 293 294 295 298 301 304 307 309 311 314 317 321 324 326 327 330 332 333 334 334 336 339 341 343 344 346 347 349 352 351 349 348 347 347 348 348 344 341 340 339 341 344 349 354 355 357 3 8 9 9 10 11 9 6 3 1 360 357 354 351 348 347 345 344 343 342 341 341 341 341 340 339 337 333 329 324 319 312 305 298 291
274 277 282 286 289 291 293 296 299 302 304 306 309 310 313 317 320 322 324 326 328 329 329 329 331 335 338 340 341 341 342 345 348 348 347 347 346 346 346 345 342 338 336 335 335 338 344 350 353 355 359 5 8 9 9 9 8 6 3 1 359 358 355 352 349 347 346 345 343 342 341 341 341 340 339 338 336 333 329 325 320 315 309 302 295
275 277 280 284 287 290 291 293 296 299 302 304 305 307 310 313 316 318 319 321 324 325 325 325 326 330 334 337 338 338 338 341 344 345 345 345 345 345 345 344 341 337 335 335 335 338 343 348 350 353 357 1 5 7 7 8 7 6 3 1 359 357 355 353 351 349 347 346 345 344 343 342 342 340 339 338 336 333 330 326 321 316 311 305 299
274 276 280 283 286 288 289 291 293 296 299 301 302 305 308 310 312 314 315 318 320 322 322 321 322 326 330 333 335 335 335 337 340 341 342 343 343 343 343 343 341 338 334 334 336 339 343 345 348 351 354 358 2 4 5 6 5 4 3 1 358 356 354 353 351 349 348 347 346 345 344 343 342 341 340 339 337 334 331 328 323 318 312 307 302
273 277 280 283 284 285 287 289 291 294 297 300 301 302 305 307 308 310 312 315 317 319 319 319 320 322 326 329 331 331 333 334 335 337 339 340 340 341 341 341 340 337 333 332 334 338 340 343 346 349 350 354 359 1 2 3 3 2 1 0 358 355 352 352 351 349 348 348 347 346 345 344 343 342 341 340 338 335 332 329 325 319 313 307 301
273 277 280 281 282 283 285 288 290 292 295 298 299 301 303 304 305 307 310 312 314 316 317 317 318 320 323 326 328 329 330 331 332 333 336 337 337 337 338 339 338 336 332 330 331 335 337 339 344 348 348 351 355 358 360 1 1 1 359 358 357 354 352 351 351 350 348 348 347 347 346 345 344 344 343 341 339 336 333 330 326 319 312 305 300
275 277 279 281 281 282 284 286 288 290 293 296 297 299 301 302 304 306 308 310 311 313 314 315 316 318 321 324 325 326 327 328 329 330 332 334 335 334 335 336 336 334 330 327 328 330 331 334 342 346 347 348 353 356 357 358 359 359 358 357 356 354 351 350 350 350 348 348 348 347 347 346 345 345 345 343 340 338 334 330 325 319 313 307 301
275 277 278 280 281 282 284 286 288 290 293 295 296 298 300 302 303 305 306 307 309 310 311 312 313 316 319 322 322 323 324 326 326 327 328 330 331 332 332 333 334 332 328 325 324 326 326 328 337 344 345 346 350 353 355 356 357 357 356 356 355 353 350 350 350 349 348 348 348 348 348 347 346 346 346 345 343 340 336 332 327 321 315 309 303
275 276 277 278 279 281 284 286 288 291 293 294 296 298 299 301 303 303 304 305 306 308 309 310 312 314 317 319 320 320 322 323 323 324 325 326 328 329 329 330 331 329 326 323 321 321 322 323 331 339 343 344 347 350 353 355 355 355 355 354 353 351 349 349 349 349 348 348 348 348 348 348 347 347 347 346 345 342 339 335 331 324 317 309 302
273 275 276 277 279 281 283 286 288 291 293 294 296 297 299 300 301 301 302 303 304 306 308 309 310 312 315 316 317 318 320 321 320 321 322 323 325 326 327 328 328 327 325 322 319 318 318 319 325 334 340 342 344 347 351 353 353 353 353 352 352 351 349 348 348 348 348 348 348 348 349 349 348 348 348 348 347 345 342 339 336 330 321 312 303
272 274 275 277 279 280 283 286 288 290 292 293 295 297 298 299 299 299 300 301 302 304 306 307 308 310 312 314 315 316 317 318 318 319 320 321 323 324 324 326 326 324 323 320 317 315 315 315 320 329 336 340 341 344 348 351 352 351 350 350 350 350 349 348 347 347 348 349 348 348 349 349 348 348 348 348 348 347 345 343 340 336 329 321 313
271 273 275 277 279 281 283 285 287 289 290 292 293 295 296 296 297 297 298 299 301 302 304 305 306 308 310 312 313 313 314 315 315 316 317 318 320 321 322 323 323 321 321 320 316 313 312 312 315 324 332 336 338 342 346 349 350 350 349 348 349 349 348 347 346 346 347 349 348 348 349 349 348 348 349 349 349 349 347 345 344 341 336 329 321
271 274 276 277 280 282 284 286 287 288 289 291 292 293 293 294 294 295 296 298 299 301 303 303 304 306 308 310 310 311 312 312 313 314 315 316 317 318 320 321 320 319 319 319 316 311 310 310 311 318 327 332 335 340 344 346 347 347 347 347 347 347 347 346 346 346 346 348 349 348 349 349 348 348 349 350 350 350 349 347 346 345 341 335 327
275 276 277 279 281 283 284 285 286 287 288 289 290 290 291 292 293 294 295 297 298 300 301 301 303 305 306 307 308 308 309 309 310 311 312 313 314 316 317 318 317 315 316 318 316 311 308 307 307 312 322 327 332 337 341 343 345 345 346 346 345 345 346 345 344 345 345 347 348 348 349 349 349 348 349 350 350 351 350 349 348 347 344 339 332
276 277 278 280 281 282 283 284 285 286 287 288 288 289 290 291 292 293 294 296 297 297 298 300 302 303 304 305 305 306 306 307 308 309 310 311 312 313 314 315 312 310 313 318 317 311 306 305 305 309 318 324 329 335 340 342 343 343 344 344 343 343 344 343 343 344 345 346 348 348 348 349 349 348 349 350 350 351 351 349 348 348 346 342 337
276 277 278 279 280 281 281 282 284 286 287 288 288 289 290 290 291 292 293 293 294 295 297 299 300 302 302 303 303 303 304 304 305 306 308 309 309 310 312 312 308 306 311 317 316 311 306 305 304 308 316 321 328 335 339 341 341 341 342 343 341 341 342 342 341 342 344 345 347 348 348 349 349 349 349 350 350 350 350 350 349 348 347 344 340
275 276 277 278 279 279 280 282 284 285 286 286 287 287 288 289 289 290 291 292 292 294 296 298 298 299 300 300 300 301 302 302 303 304 306 307 306 306 308 308 304 303 309 314 314 310 306 303 303 308 315 320 328 335 339 339 340 340 341 341 340 339 341 341 340 341 343 344 346 348 348 349 349 349 349 350 350 350 350 350 350 349 348 346 342
275 276 277 278 279 280 280 281 282 282 283 284 284 285 285 286 287 288 289 290 291 293 295 295 296 297 297 298 298 299 300 301 301 303 305 304 302 303 304 303 299 301 306 310 310 307 304 302 302 308 315 321 329 335 337 338 338 338 339 339 338 339 340 340 339 340 342 343 346 347 348 349 349 349 349 349 349 350 350 350 350 349 348 347 344
275 276 277 277 278 279 280 280 280 280 281 281 282 282 283 284 284 285 286 287 289 291 292 292 293 295 295 296 296 297 298 299 301 302 302 300 299 300 300 297 296 298 303 306 306 304 302 298 299 307 315 322 329 334 335 336 337 337 337 337 337 338 338 338 338 340 341 343 345 347 347 348 349 349 349 349 349 350 350 349 350 350 349 347 345
276 276 276 277 277 278 278 279 279 280 281 281 282 282 283 283 284 284 285 287 288 289 289 290 292 293 293 293 294 295 297 299 301 301 299 297 296 296 295 293 294 296 299 301 302 301 298 295 297 307 316 324 330 333 334 335 336 336 336 336 336 336 337 337 337 339 341 342 345 347 347 347 348 349 349 349 349 349 350 349 349 349 349 348 346
278 278 279 279 279 279 279 280 281 282 283 283 283 284 284 284 285 285 286 287 288 288 288 289 290 290 291 292 293 295 298 300 301 298 295 294 293 292 291 291 292 294 296 298 298 298 295 292 295 306 316 324 329 332 333 333 334 335 335 334 335 335 336 336 337 339 340 341 344 346 346 346 348 348 349 350 349 349 349 348 348 349 349 348 347
Height
10977 10976 10975 10974 10974 10973 10973 10972 10971 10970 10970 10969 10968 10967 10966 10965 10965 10964 10963 10962 10961 10961 10959 10959 10958 10957 10956 10955 10954 10953 10952 10951 10950 10949 10947 10946 10945 10944 10943 10942 10941 10940 10939 10938 10937 10937 10936 10935 10934 10933 10932 10932 10931 10930 10930 10929 10928 10928 10928 10928 10928 10928 10927 10927 10927 10927 10927 10927 10927 10927 10927 10927 10927 10927 10927 10927 10927 10927 10927 10927 10927 10927 10927 10927 10926
10979 10978 10977 10977 10976 10975 10975 10974 10974 10973 10972 10971 10970 10969 10968 10967 10966 10966 10965 10964 10963 10962 10961 10960 10959 10958 10957 10956 10954 10953 10952 10951 10950 10949 10948 10947 10945 10944 10943 10943 10942 10940 10939 10938 10937 10936 10935 10934 10933 10933 10932 10931 10931 10930 10929 10928 10928 10927 10927 10927 10926 10926 10925 10925 10925 10925 10925 10926 10926 10926 10926 10926 10926 10926 10926 10926 10925 10925 10925 10926 10926 10926 10926 10926 10926
10981 10980 10979 10979 10978 10977 10977 10976 10976 10975 10974 10973 10971 10970 10969 10969 10968 10967 10966 10966 10965 10964 10962 10961 10960 10959 10957 10956 10955 10954 10952 10951 10950 10949 10949 10947 10946 10945 10944 10943 10942 10940 10939 10938 10937 10935 10934 10933 10932 10932 10931 10930 10930 10929 10929 10928 10927 10927 10926 10925 10925 10924 10924 10923 10923 10923 10924 10924 10925 10925 10925 10925 10925 10925 10925 10924 10924 10924 10924 10924 10925 10925 10925 10925 10925
10983 10982 10981 10981 10980 10980 10979 10978 10977 10977 10976 10974 10973 10972 10971 10970 10970 10969 10968 10967 10966 10965 10963 10962 10961 10959 10958 10957 10955 10954 10953 10951 10950 10950 10949 10948 10947 10946 10945 10943 10942 10940 10939 10938 10937 10936 10934 10933 10931 10930 10930 10929 10929 10928 10928 10927 10926 10925 10924 10924 10923 10923 10922 10922 10922 10922 10923 10923 10923 10923 10923 10924 10924 10924 10924 10924 10923 10923 10923 10924 10924 10924 10924 10924 10924
10984 10984 10983 10983 10982 10981 10981 10980 10979 10978 10977 10976 10975 10974 10973 10972 10972 10971 10970 10969 10967 10966 10965 10963 10962 10960 10959 10957 10956 10955 10953 10952 10951 10950 10949 10948 10947 10946 10946 10944 10942 10940 10939 10938 10937 10936 10934 10932 10931 10929 10928 10928 10927 10927 10926 10925 10924 10924 10923 10922 10922 10922 10922 10922 10921 10921 10921 10921 10921 10921 10921 10922 10923 10923 10923 10923 10922 10922 10923 10923 10923 10923 10922 10922 10922
10986 10985 10985 10985 10984 10983 10982 10982 10981 10980 10979 10978 10977 10976 10975 10974 10973 10973 10972 10970 10969 10968 10966 10965 10963 10961 10960 10958 10957 10955 10954 10953 10952 10950 10949 10948 10948 10947 10946 10944 10943 10941 10940 10938 10937 10936 10934 10932 10930 10928 10927 10926 10925 10925 10924 10924 10923 10923 10922 10921 10921 10921 10921 10921 10920 10919 10919 10919 10919 10919 10920 10921 10921 10921 10920 10920 10921 10921 10922 10922 10921 10921 10921 10921 10921
10988 10987 10987 10986 10986 10985 10985 10984 10983 10982 10981 10980 10979 10978 10977 10976 10976 10975 10974 10972 10971 10969 10968 10966 10964 10963 10961 10959 10958 10956 10955 10953 10952 10951 10950 10949 10948 10947 10946 10944 10943 10942 10941 10939 10937 10936 10934 10932 10930 10928 10926 10925 10924 10923 10922 10922 10922 10921 10920 10920 10919 10919 10919 10919 10919 10918 10918 10918 10918 10918 10918 10918 10918 10917 10918 10918 10920 10921 10921 10920 10920 10919 10919 10920 10920
10990 10989 10989 10988 10988 10987 10987 10986 10985 10984 10983 10982 10981 10980 10979 10978 10978 10977 10976 10974 10972 10971 10969 10967 10965 10964 10962 10960 10959 10957 10956 10955 10953 10952 10951 10949 10948 10947 10946 10944 10943 10942 10941 10939 10937 10935 10934 10932 10930 10927 10925 10924 10923 10922 10921 10921 10920 10919 10918 10918 10917 10917 10917 10917 10917 10917 10917 10917 10917 10917 10916 10915 10914 10915 10916 10917 10918 10919 10918 10918 10918 10918 10918 10918 10918
10991 10990 10990 10990 10989 10989 10988 10987 10987 10986 10985 10983 10982 10981 10981 10980 10980 10979 10978 10976 10974 10972 10970 10968 10967 10965 10963 10962 10960 10959 10958 10956 10954 10953 10951 10950 10948 10946 10945 10944 10943 10942 10941 10940 10937 10935 10933 10931 10929 10927 10925 10923 10922 10920 10919 10919 10919 10918 10917 10916 10915 10915 10915 10915 10915 10915 10916 10916 10916 10916 10914 10912 10912 10914 10915 10916 10916 10916 10915 10915 10915 10916 10916 10916 10917
10992 10992 10992 10991 10991 10990 10989 10989 10988 10987 10986 10985 10984 10983 10982 10982 10982 10981 10980 10978 10976 10974 10972 10970 10968 10967 10965 10964 10962 10961 10959 10958 10956 10954 10952 10950 10948 10946 10945 10943 10942 10941 10940 10939 10937 10934 10932 10930 10928 10926 10924 10922 10921 10919 10918 10917 10917 10916 10915 10914 10913 10913 10913 10914 10914 10915 10915 10915 10915 10914 10912 10911 10912 10914 10914 10914 10914 10914 10913 10913 10913 10913 10914 10915 10915
10994 10993 10993 10992 10992 10991 10991 10990 10989 10988 10987 10986 10985 10985 10985 10984 10984 10983 10982 10980 10977 10975 10974 10972 10970 10969 10967 10965 10964 10962 10960 10959 10957 10955 10953 10951 10948 10946 10945 10943 10942 10940 10939 10937 10935 10933 10931 10929 10927 10925 10923 10921 10920 10918 10917 10916 10916 10915 10914 10912 10911 10910 10911 10913 10914 10913 10913 10913 10912 10911 10910 10910 10912 10913 10912 10912 10912 10912 10912 10912 10911 10911 10911 10912 10913
10995 10994 10994 10993 10993 10992 10992 10991 10991 10990 10988 10988 10987 10987 10987 10987 10986 10985 10983 10981 10978 10977 10975 10974 10972 10970 10969 10967 10965 10963 10961 10959 10957 10955 10953 10951 10949 10947 10945 10943 10942 10940 10938 10937 10935 10932 10930 10928 10926 10924 10922 10920 10918 10917 10916 10915 10915 10914 10912 10910 10909 10908 10910 10912 10912 10910 10910 10910 10909 10908 10907 10908 10910 10911 10911 10911 10911 10911 10910 10910 10910 10909 10909 10910 10910
10996 10995 10995 10994 10994 10994 10993 10993 10992 10991 10990 10989 10989 10989 10989 10988 10988 10986 10984 10982 10979 10978 10976 10975 10974 10972 10970 10968 10966 10964 10962 10960 10958 10956 10954 10952 10950 10948 10946 10944 10942 10940 10938 10936 10934 10932 10929 10927 10925 10923 10921 10918 10916 10916 10915 10914 10913 10912 10910 10909 10907 10906 10907 10908 10908 10907 10907 10908 10906 10905 10905 10906 10907 10908 10908 10909 10909 10909 10908 10908 10907 10906 10906 10907 10908
10997 10996 10996 10995 10995 10994 10994 10993 10993 10992 10991 10991 10991 10990 10990 10990 10989 10987 10984 10982 10980 10979 10978 10976 10975 10972 10971 10969 10967 10965 10962 10960 10958 10956 10954 10952 10950 10948 10946 10944 10942 10940 10938 10936 10934 10931 10929 10926 10924 10922 10920 10917 10915 10914 10913 10912 10911 10910 10908 10907 10905 10904 10904 10904 10903 10903 10904 10905 10904 10903 10902 10903 10904 10904 10904 10905 10905 10905 10905 10905 10904 10903 10903 10904 10905
10997 10997 10996 10996 10995 10995 10994 10994 10993 10993 10992 10992 10992 10992 10991 10990 10989 10987 10985 10983 10981 10980 10979 10977 10975 10973 10971 10968 10966 10965 10963 10961 10959 10956 10954 10952 10949 10947 10946 10944 10942 10940 10938 10936 10933 10931 10928 10926 10923 10920 10918 10917 10915 10913 10912 10911 10909 10908 10906 10904 10903 10902 10901 10901 10900 10900 10900 10901 10901 10900 10899 10900 10901 10901 10901 10901 10902 10901 10901 10901 10900 10900 10900 10901 10902
10998 10998 10997 10996 10996 10995 10995 10994 10994 10993 10993 10993 10993 10993 10992 10991 10989 10987 10985 10984 10982 10981 10979 10977 10975 10973 10970 10969 10967 10965 10963 10961 10959 10956 10954 10952 10949 10947 10945 10943 10941 10939 10937 10935 10933 10930 10927 10924 10922 10919 10917 10915 10913 10912 10910 10909 10907 10906 10904 10902 10900 10899 10898 10898 10897 10897 10896 10897 10897 10897 10896 10897 10898 10898 10898 10898 10899 10899 10898 10898 10897 10897 10898 10898 10898
10999 10998 10998 10997 10997 10996 10995 10995 10994 10994 10993 10993 10993 10993 10992 10991 10989 10987 10985 10984 10983 10981 10979 10977 10975 10973 10971 10969 10967 10965 10963 10961 10958 10957 10954 10952 10950 10947 10945 10943 10941 10939 10937 10934 10932 10929 10926 10924 10921 10919 10916 10913 10911 10910 10908 10906 10905 10903 10902 10900 10898 10896 10895 10894 10894 10894 10893 10893 10893 10893 10893 10894 10895 10896 10896 10896 10896 10896 10895 10895 10894 10894 10895 10894 10894
10999 10999 10998 10998 10997 10996 10996 10995 10995 10994 10994 10994 10994 10993 10992 10991 10989 10988 10986 10984 10983 10981 10979 10977 10976 10974 10972 10970 10968 10966 10963 10961 10959 10957 10955 10953 10950 10948 10946 10944 10941 10939 10937 10934 10931 10928 10926 10923 10920 10918 10915 10913 10910 10908 10906 10904 10903 10901 10899 10898 10896 10893 10892 10891 10891 10891 10891 10891 10890 10891 10891 10891 10892 10892 10893 10893 10893 10893 10892 10891 10891 10891 10891 10891 10891
10999 10999 10999 10998 10998 10997 10996 10996 10995 10995 10994 10994 10994 10993 10992 10991 10990 10988 10986 10985 10983 10981 10979 10978 10976 10975 10973 10971 10969 10967 10964 10962 10960 10958 10956 10954 10951 10949 10947 10945 10942 10940 10937 10934 10931 10928 10925 10923 10920 10918 10915 10912 10910 10907 10905 10902 10900 10898 10897 10895 10893 10891 10890 10889 10888 10889 10889 10889 10889 10889 10889 10889 10889 10889 10890 10890 10890 10889 10889 10888 10887 10886 10886 10886 10886
10999 10999 10999 10998 10998 10998 10997 10996 10996 10995 10995 10994 10994 10993 10992 10991 10990 10988 10987 10985 10983 10982 10980 10979 10978 10976 10974 10972 10970 10968 10965 10963 10961 10959 10957 10955 10953 10950 10948 10945 10943 10941 10938 10935 10931 10928 10926 10923 10921 10918 10915 10912 10909 10906 10904 10901 10899 10896 10893 10891 10889 10888 10887 10887 10887 10887 10887 10887 10887 10886 10886 10886 10886 10886 10886 10885 10885 10885 10884 10883 10882 10881 10881 10880 10880
10999 10999 10999 10998 10998 10998 10997 10997 10996 10995 10995 10994 10994 10993 10992 10991 10990 10989 10987 10986 10984 10982 10981 10980 10978 10977 10975 10973 10970 10968 10966 10964 10962 10960 10958 10956 10953 10951 10948 10946 10944 10941 10939 10935 10932 10929 10927 10924 10921 10919 10916 10912 10909 10905 10903 10900 10897 10895 10891 10888 10886 10885 10885 10885 10885 10886 10886 10885 10885 10884 10884 10884 10883 10883 10882 10881 10880 10879 10878 10877 10876 10876 10875 10875 10875
10999 10999 10999 10998 10998 10998 10997 10997 10996 10995 10995 10994 10993 10993 10992 10991 10990 10989 10987 10986 10984 10983 10982 10980 10979 10977 10975 10973 10971 10969 10967 10965 10963 10961 10959 10956 10954 10951 10949 10946 10944 10942 10939 10936 10933 10930 10927 10924 10921 10918 10916 10913 10910 10906 10903 10900 10897 10895 10891 10888 10885 10884 10884 10884 10884 10885 10885 10885 10884 10884 10883 10882 10881 10880 10879 10877 10876 10875 10873 10872 10871 10870 10870 10870 10870
10999 10999 10999 10998 10998 10998 10997 10996 10996 10995 10994 10994 10993 10992 10991 10990 10989 10988 10987 10986 10984 10983 10982 10981 10979 10978 10976 10974 10972 10969 10967 10964 10962 10960 10958 10956 10954 10952 10949 10946 10944 10942 10939 10936 10933 10931 10928 10925 10922 10919 10916 10914 10911 10907 10904 10901 10899 10896 10892 10889 10886 10885 10884 10884 10884 10885 10885 10885 10884 10883 10882 10881 10879 10878 10876 10874 10872 10870 10868 10867 10865 10864 10864 10863 10863
10998 10998 10998 10998 10998 10997 10997 10996 10995 10994 10994 10993 10992 10991 10990 10989 10988 10987 10986 10985 10984 10983 10981 10980 10978 10977 10976 10974 10972 10969 10966 10964 10962 10960 10957 10955 10953 10951 10949 10946 10943 10941 10938 10936 10933 10931 10929 10926 10923 10920 10917 10914 10912 10910 10906 10903 10901 10898 10894 10891 10889 10887 10886 10885 10885 10885 10885 10884 10883 10882 10880 10878 10876 10874 10872 10870 10868 10865 10863 10861 10859 10857 10856 10855 10855
10998 10997 10997 10997 10997 10996 10996 10995 10994 10994 10993 10992 10992 10991 10990 10989 10987 10986 10985 10984 10983 10982 10981 10979 10977 10976 10975 10974 10972 10969 10966 10963 10961 10960 10957 10955 10953 10951 10949 10946 10943 10940 10938 10935 10933 10931 10929 10926 10923 10920 10917 10914 10912 10910 10907 10904 10901 10898 10895 10893 10891 10889 10888 10887 10886 10886 10884 10883 10881 10879 10878 10875 10873 10870 10867 10865 10862 10860 10858 10855 10853 10850 10849 10847 10846
10996 10996 10996 10996 10995 10995 10994 10994 10993 10993 10992 10991 10991 10990 10989 10988 10986 10985 10984 10983 10982 10981 10980 10978 10977 10975 10974 10972 10971 10969 10966 10963 10961 10960 10958 10956 10953 10951 10948 10946 10943 10940 10937 10935 10932 10930 10928 10926 10923 10920 10917 10914 10912 10909 10905 10901 10898 10895 10893 10892 10890 10889 10887 10886 10885 10884 10882 10881 10879 10877 10874 10871 10868 10865 10862 10859 10856 10854 10851 10849 10847 10844 10842 10840 10838
10995 10995 10995 10994 10994 10993 10993 10992 10992 10991 10991 10990 10989 10989 10988 10986 10985 10984 10983 10982 10981 10980 10978 10977 10976 10974 10973 10971 10970 10968 10965 10963 10962 10960 10958 10956 10953 10951 10948 10945 10942 10939 10936 10933 10931 10929 10927 10924 10922 10919 10916 10913 10910 10906 10902 10899 10895 10893 10890 10888 10886 10885 10883 10882 10881 10879 10877 10875 10873 10871 10869 10866 10863 10860 10857 10854 10851 10848 10845 10842 10840 10838 10836 10833 10831
10994 10993 10993 10993 10992 10992 10992 10991 10990 10989 10989 10988 10987 10987 10986 10985 10984 10983 10982 10980 10979 10978 10977 10975 10974 10973 10972 10970 10969 10967 10965 10963 10961 10960 10958 10955 10953 10950 10947 10944 10940 10937 10935 10932 10930 10928 10925 10923 10920 10917 10914 10911 10907 10903 10899 10896 10894 10891 10889 10887 10885 10883 10881 10879 10877 10874 10872 10870 10867 10865 10863 10860 10857 10854 10851 10848 10845 10841 10838 10835 10832 10830 10828 10826 10824
10992 10992 10992 10991 10991 10991 10990 10989 10989 10988 10987 10986 10985 10985 10985 10984 10983 10982 10980 10979 10978 10976 10975 10974 10972 10971 10970 10968 10967 10966 10965 10963 10961 10959 10956 10954 10951 10949 10946 10942 10939 10936 10934 10931 10929 10927 10925 10922 10919 10916 10912 10909 10905 10902 10898 10895 10892 10890 10888 10886 10885 10883 10880 10878 10875 10872 10869 10866 10864 10861 10857 10854 10851 10848 10845 10841 10838 10835 10832 10828 10825 10822 10819 10817 10815
10991 10991 10991 10990 10990 10989 10989 10988 10987 10986 10985 10984 10983 10983 10983 10982 10982 10980 10979 10978 10977 10975 10973 10972 10970 10969 10968 10966 10965 10964 10962 10961 10959 10957 10954 10951 10949 10947 10944 10941 10938 10935 10933 10930 10928 10926 10924 10922 10919 10916 10912 10908 10905 10901 10898 10895 10892 10889 10887 10885 10883 10881 10878 10875 10872 10869 10866 10863 10860 10856 10852 10849 10846 10842 10838 10834 10831 10828 10824 10821 10818 10814 10811 10808 10806
10989 10989 10989 10989 10988 10987 10987 10986 10985 10984 10983 10982 10981 10981 10981 10980 10980 10979 10978 10977 10975 10974 10972 10970 10968 10967 10966 10964 10962 10961 10959 10958 10957 10954 10952 10949 10946 10944 10942 10939 10937 10934 10931 10928 10926 10924 10923 10921 10919 10916 10911 10907 10904 10900 10897 10895 10892 10889 10887 10885 10882 10879 10876 10873 10870 10867 10863 10859 10856 10852 10848 10844 10840 10835 10831 10826 10823 10819 10816 10813 10809 10806 10802 10799 10796
10987 10987 10987 10986 10986 10985 10985 10984 10983 10982 10981 10980 10979 10979 10978 10978 10978 10977 10976 10975 10974 10972 10970 10968 10966 10965 10964 10962 10960 10958 10956 10955 10954 10952 10949 10946 10943 10941 10939 10937 10934 10931 10929 10926 10924 10921 10920 10918 10917 10914 10911 10907 10903 10899 10896 10894 10891 10888 10886 10883 10880 10877 10874 10871 10868 10864 10860 10856 10851 10847 10843 10838 10834 10829 10824 10819 10815 10811 10807 10803 10799 10796 10793 10790 10787
10984 10984 10984 10984 10983 10983 10982 10982 10981 10980 10979 10977 10976 10976 10976 10975 10975 10975 10974 10973 10972 10970 10968 10966 10964 10963 10962 10961 10959 10956 10954 10952 10951 10949 10947 10944 10941 10938 10936 10934 10931 10929 10926 10924 10921 10918 10916 10915 10914 10912 10909 10905 10901 10897 10894 10891 10889 10886 10883 10880 10877 10874 10871 10868 10864 10860 10856 10852 10847 10842 10837 10832 10827 10822 10817 10812 10808 10803 10798 10793 10789 10785 10782 10780 10777
10981 10981 10981 10981 10981 10980 10980 10979 10978 10977 10976 10975 10974 10973 10973 10972 10972 10972 10971 10971 10970 10968 10966 10964 10962 10961 10960 10959 10957 10955 10953 10951 10949 10947 10944 10941 10938 10935 10933 10931 10928 10926 10923 10921 10918 10915 10913 10911 10910 10908 10905 10902 10898 10894 10891 10888 10886 10883 10880 10877 10874 10870 10867 10863 10860 10856 10852 10847 10841 10836 10832 10827 10821 10816 10810 10804 10798 10793 10788 10783 10778 10774 10770 10767 10765
10978 10978 10978 10978 10978 10977 10977 10977 10976 10975 10974 10973 10971 10970 10970 10969 10969 10969 10968 10967 10967 10965 10963 10961 10959 10958 10957 10956 10955 10952 10950 10948 10946 10944 10942 10939 10936 10932 10930 10927 10925 10922 10919 10917 10915 10912 10910 10908 10906 10904 10901 10899 10894 10890 10887 10884 10881 10879 10876 10873 10870 10866 10862 10859 10855 10851 10846 10841 10836 10831 10826 10821 10815 10809 10802 10795 10789 10782 10776 10771 10766 10762 10758 10755 10752
10975 10975 10975 10975 10975 10974 10974 10974 10973 10972 10971 10970 10969 10967 10967 10966 10965 10965 10964 10964 10963 10962 10960 10958 10956 10955 10954 10953 10951 10949 10947 10945 10943 10941 10939 10936 10933 10930 10927 10925 10922 10919 10916 10914 10912 10909 10907 10905 10903 10901 10898 10895 10891 10887 10883 10880 10877 10874 10871 10869 10865 10862 10858 10854 10850 10845 10841 10836 10830 10825 10821 10815 10809 10803 10796 10788 10780 10773 10766 10760 10755 10751 10746 10743 10740
10972 10972 10972 10972 10971 10971 10971 10970 10970 10969 10968 10967 10966 10964 10963 10962 10962 10961 10960 10960 10959 10958 10957 10955 10952 10951 10950 10949 10947 10945 10943 10941 10939 10937 10935 10933 10930 10927 10924 10921 10919 10916 10913 10911 10909 10906 10904 10902 10900 10898 10896 10893 10889 10884 10880 10877 10874 10871 10868 10865 10861 10857 10853 10849 10844 10840 10835 10830 10825 10820 10816 10810 10803 10796 10789 10782 10774 10767 10759 10753 10747 10741 10735 10731 10727
10968 10968 10968 10968 10968 10967 10967 10967 10966 10965 10965 10963 10962 10961 10960 10959 10958 10957 10956 10955 10955 10954 10954 10951 10949 10947 10946 10945 10943 10941 10939 10937 10935 10933 10930 10928 10926 10924 10920 10918 10915 10913 10910 10908 10905 10903 10901 10899 10898 10896 10894 10891 10887 10883 10878 10874 10870 10867 10864 10861 10857 10853 10849 10844 10840 10835 10830 10825 10820 10815 10810 10805 10798 10791 10784 10777 10770 10763 10755 10746 10738 10731 10724 10718 10713
10964 10964 10964 10964 10964 10964 10964 10963 10962 10962 10961 10960 10959 10958 10957 10955 10954 10953 10952 10951 10950 10950 10949 10948 10945 10944 10942 10941 10939 10936 10935 10933 10930 10928 10926 10924 10922 10920 10917 10914 10912 10909 10906 10903 10901 10899 10897 10896 10894 10893 10891 10888 10885 10881 10877 10872 10868 10864 10860 10857 10853 10849 10844 10840 10835 10831 10825 10819 10814 10809 10804 10799 10793 10787 10780 10773 10765 10757 10750 10741 10731 10722 10714 10707 10701
10960 10960 10960 10960 10960 10960 10960 10959 10959 10958 10957 10956 10955 10954 10953 10951 10949 10948 10947 10946 10945 10945 10944 10943 10941 10940 10938 10936 10934 10932 10930 10929 10926 10923 10922 10919 10917 10915 10913 10910 10907 10905 10902 10899 10897 10895 10893 10891 10890 10888 10886 10884 10882 10878 10874 10869 10865 10861 10857 10854 10850 10846 10841 10836 10831 10827 10822 10816 10810 10804 10799 10793 10787 10780 10772 10765 10758 10751 10743 10734 10725 10715 10706 10698 10692
10956 10956 10956 10956 10956 10956 10956 10955 10955 10954 10953 10952 10951 10949 10948 10947 10945 10943 10941 10941 10940 10940 10939 10938 10936 10935 10933 10932 10930 10928 10926 10924 10921 10919 10916 10914 10912 10910 10908 10906 10903 10900 10898 10895 10892 10890 10888 10887 10885 10884 10882 10880 10877 10874 10869 10865 10861 10858 10854 10850 10846 10842 10837 10832 10827 10821 10817 10811 10804 10798 10792 10786 10780 10774 10766 10759 10752 10744 10735 10726 10716 10706 10697 10687 10681
10951 10952 10952 10952 10952 10952 10951 10951 10950 10949 10948 10947 10946 10945 10943 10942 10940 10938 10936 10935 10935 10935 10934 10932 10931 10930 10929 10927 10925 10923 10922 10920 10917 10914 10912 10909 10907 10905 10903 10901 10899 10896 10893 10891 10888 10886 10884 10882 10881 10879 10877 10875 10873 10869 10865 10861 10857 10854 10850 10846 10841 10836 10832 10827 10822 10816 10810 10805 10799 10791 10785 10779 10773 10767 10760 10752 10744 10736 10728 10718 10708 10698 10688 10679 10672
10947 10947 10947 10947 10947 10947 10947 10946 10945 10944 10943 10942 10941 10939 10938 10936 10934 10932 10930 10929 10929 10929 10929 10927 10926 10925 10924 10922 10920 10918 10917 10915 10913 10910 10908 10905 10903 10901 10899 10896 10894 10891 10889 10887 10884 10882 10880 10878 10877 10875 10873 10870 10868 10864 10860 10856 10853 10849 10845 10840 10835 10831 10826 10821 10816 10811 10804 10798 10793 10786 10779 10772 10765 10758 10750 10742 10734 10726 10718 10709 10700 10690 10681 10673 10665
10942 10942 10942 10942 10942 10942 10941 10940 10939 10939 10938 10936 10935 10933 10932 10930 10929 10927 10925 10924 10923 10923 10923 10922 10921 10920 10919 10917 10915 10913 10911 10909 10908 10905 10903 10900 10898 10896 10895 10892 10889 10887 10885 10882 10880 10877 10875 10873 10872 10871 10868 10866 10863 10860 10855 10851 10848 10844 10840 10834 10829 10825 10821 10815 10811 10806 10799 10792 10786 10779 10772 10765 10757 10749 10741 10732 10724 10716 10708 10699 10691 10683 10675 10667 10660
10937 10936 10936 10936 10937 10936 10935 10934 10933 10933 10932 10930 10929 10928 10926 10925 10923 10922 10920 10918 10916 10916 10916 10916 10915 10914 10913 10911 10909 10907 10905 10903 10902 10900 10898 10895 10892 10891 10890 10888 10885 10882 10880 10878 10876 10873 10871 10869 10868 10866 10863 10861 10858 10854 10850 10846 10842 10838 10834 10828 10824 10819 10815 10810 10805 10800 10794 10786 10780 10774 10767 10759 10752 10743 10734 10724 10716 10708 10701 10692 10684 10676 10669 10661 10654
10931 10930 10930 10931 10931 10930 10929 10928 10928 10927 10925 10924 10922 10921 10920 10918 10917 10916 10914 10912 10910 10909 10909 10910 10909 10908 10907 10905 10903 10901 10899 10897 10896 10894 10893 10890 10886 10885 10884 10882 10880 10877 10875 10873 10870 10868 10866 10865 10863 10861 10858 10855 10853 10849 10844 10840 10837 10833 10828 10823 10819 10814 10810 10805 10799 10795 10789 10782 10774 10768 10762 10754 10747 10737 10727 10717 10708 10701 10694 10687 10678 10670 10662 10654 10646
10924 10924 10924 10924 10924 10923 10923 10923 10923 10921 10919 10917 10915 10914 10913 10912 10911 10910 10908 10906 10904 10903 10902 10902 10902 10902 10900 10898 10895 10894 10892 10891 10889 10888 10887 10884 10880 10879 10878 10877 10874 10871 10869 10867 10865 10863 10861 10860 10858 10856 10853 10850 10848 10844 10840 10836 10833 10828 10823 10819 10814 10810 10805 10800 10795 10790 10785 10777 10769 10762 10755 10748 10740 10730 10720 10711 10703 10695 10688 10680 10672 10662 10653 10646 10638
10918 10918 10918 10917 10916 10916 10916 10917 10916 10914 10913 10911 10908 10906 10906 10905 10904 10904 10902 10900 10898 10897 10896 10894 10894 10895 10893 10890 10888 10886 10885 10884 10882 10881 10880 10877 10873 10872 10872 10871 10868 10866 10864 10862 10860 10858 10856 10855 10853 10851 10848 10846 10843 10839 10835 10832 10828 10823 10818 10814 10809 10805 10800 10795 10790 10785 10779 10771 10764 10756 10748 10741 10733 10725 10715 10706 10697 10689 10680 10672 10666 10657 10647 10639 10631
10911 10912 10911 10911 10910 10909 10909 10908 10908 10907 10905 10904 10902 10900 10898 10898 10897 10897 10896 10894 10893 10891 10889 10886 10886 10886 10886 10883 10881 10879 10878 10877 10876 10875 10873 10870 10866 10865 10865 10865 10862 10860 10859 10857 10855 10853 10852 10850 10848 10846 10844 10841 10838 10834 10830 10827 10823 10819 10814 10809 10804 10800 10795 10790 10784 10779 10772 10765 10758 10750 10743 10736 10729 10721 10711 10700 10690 10682 10673 10665 10659 10652 10643 10634 10626
10904 10903 10903 10903 10903 10902 10901 10900 10899 10899 10898 10897 10894 10892 10890 10889 10889 10889 10889 10888 10887 10885 10882 10879 10878 10878 10877 10875 10873 10872 10871 10871 10870 10868 10865 10863 10860 10859 10859 10858 10856 10855 10854 10852 10849 10848 10847 10845 10843 10841 10839 10836 10833 10829 10825 10821 10818 10814 10809 10804 10800 10795 10791 10785 10779 10774 10767 10759 10752 10745 10737 10731 10724 10717 10708 10697 10685 10674 10666 10659 10652 10645 10637 10629 10621
10896 10895 10895 10895 10894 10893 10893 10893 10892 10892 10891 10890 10887 10884 10882 10880 10880 10880 10881 10881 10879 10876 10874 10872 10870 10869 10869 10868 10866 10864 10865 10864 10863 10861 10859 10856 10854 10853 10852 10852 10850 10849 10848 10847 10844 10842 10841 10840 10839 10837 10834 10831 10828 10824 10820 10816 10812 10808 10804 10799 10795 10791 10786 10781 10775 10768 10762 10754 10747 10740 10733 10726 10720 10712 10703 10693 10681 10669 10660 10652 10645 10636 10629 10622 10615